Wind_Speed
3 2 3 3 3 5 6 6 6 6 6 5 4 4 5 6 7 7 7 7 7 7 7 7 7 7 7 8 9 10 10 10 10 9 9 8 7 6 5 5 4 4 4 4 4 4 4 3 2
5 4 4 4 4 6 9 8 7 7 8 7 6 5 6 6 7 7 6 7 7 7 7 7 7 7 8 9 9 10 10 11 11 11 10 9 9 8 8 7 6 5 4 4 3 3 3 3 2
7 7 6 6 6 7 10 9 9 9 9 9 8 8 7 7 8 8 7 7 6 7 7 7 7 8 9 9 10 11 11 12 12 12 12 11 11 11 11 10 10 9 8 7 6 5 4 4 3
10 10 9 9 10 11 11 11 11 11 11 11 11 11 10 10 9 9 8 8 8 7 7 7 7 8 9 10 10 11 12 12 13 13 13 13 13 13 13 13 13 12 11 10 9 9 7 6 6
13 12 12 12 14 15 14 13 13 13 12 12 13 14 13 11 11 10 10 10 9 9 8 7 8 9 9 10 11 12 12 13 14 14 15 15 16 16 16 16 16 15 15 14 13 12 11 10 9
15 15 14 14 17 17 17 16 14 13 13 13 13 14 14 12 12 11 10 9 9 8 8 8 9 10 11 11 12 13 14 15 15 16 17 17 18 18 19 19 19 18 18 18 17 16 15 14 13
17 17 17 17 19 21 20 18 16 15 14 13 13 14 14 13 12 11 10 10 9 9 9 10 11 12 13 13 14 15 16 17 18 19 20 20 21 21 21 22 22 22 21 21 20 19 18 18 17
19 19 19 20 21 23 21 20 18 16 15 14 14 14 14 13 12 12 11 11 11 12 12 13 14 16 17 17 18 19 20 21 22 23 24 24 24 25 25 25 25 25 25 24 23 22 22 21 20
21 20 20 22 23 23 23 22 21 18 17 16 15 15 15 14 13 13 13 13 14 15 16 17 19 20 21 22 23 24 25 25 26 27 28 29 29 29 29 29 29 29 28 27 26 25 25 24 23
22 21 22 23 23 24 25 25 23 22 21 19 18 17 17 16 16 16 16 16 17 18 20 22 23 24 25 27 27 28 29 29 29 31 32 33 33 34 33 33 33 32 31 30 29 28 27 26 26
23 22 22 23 24 25 26 27 26 25 24 22 21 20 19 19 19 19 19 20 21 22 24 25 26 27 28 29 30 30 32 32 32 32 33 34 35 36 36 36 36 36 35 33 32 31 29 28 28
23 22 23 24 25 26 27 28 28 27 26 26 25 23 22 22 21 22 22 23 24 25 25 27 28 29 30 31 32 33 33 33 34 34 34 35 36 37 38 38 39 39 38 36 35 33 32 30 29
23 22 23 23 25 26 27 28 29 29 29 28 28 27 26 25 25 25 25 26 27 27 28 29 31 32 32 33 34 34 33 33 33 32 33 35 37 38 39 39 40 41 40 39 37 35 34 32 30
22 22 22 22 24 25 26 28 29 29 29 30 30 30 29 29 28 28 28 28 29 29 31 31 33 34 34 34 35 34 34 33 33 33 34 36 36 37 39 40 39 40 41 41 40 37 35 33 32
20 20 21 22 23 24 25 27 28 28 29 30 30 30 31 31 31 30 30 30 30 31 33 34 36 37 37 37 37 36 35 33 33 34 34 35 35 35 36 38 38 39 41 42 41 37 35 35 33
17 16 17 21 21 21 22 25 25 26 27 27 27 28 28 29 30 30 31 31 32 33 35 37 38 39 40 40 40 38 36 35 33 32 33 33 33 34 36 37 37 39 40 40 39 38 37 36 34
11 10 13 18 18 19 20 23 23 23 23 23 23 23 24 26 27 29 30 32 34 35 37 39 40 42 42 43 42 39 38 36 34 32 32 32 31 32 35 35 34 36 39 38 39 39 37 35 34
8 9 11 15 17 18 20 21 22 22 22 22 22 22 23 24 27 28 30 32 34 37 39 41 43 44 44 44 42 41 39 38 37 35 34 33 32 32 34 34 33 34 35 36 38 38 37 36 34
9 8 10 14 15 17 18 20 20 21 22 22 22 22 23 25 27 29 31 34 36 39 41 43 44 44 43 43 42 41 40 39 38 37 37 35 34 33 34 33 33 34 35 36 37 37 37 37 35
6 7 9 12 13 15 16 17 18 18 19 20 21 23 24 26 28 30 32 35 37 39 40 41 41 40 40 40 40 40 40 40 40 39 39 37 35 34 33 32 32 33 33 34 34 37 38 37 35
5 6 8 10 11 11 13 13 14 14 15 16 18 20 23 25 28 30 32 34 35 36 37 38 38 38 39 40 40 41 41 41 41 41 40 38 37 35 35 33 32 33 32 33 34 35 37 36 35
6 7 7 8 9 11 9 11 13 14 15 17 18 20 22 24 26 28 30 32 33 34 36 37 38 39 40 42 43 43 44 45 45 44 43 41 40 38 36 36 35 35 34 33 33 34 36 35 35
6 6 7 8 9 10 10 11 16 15 16 18 20 21 23 25 27 29 31 32 34 36 38 40 41 42 43 45 46 47 48 48 48 47 46 45 44 42 40 38 36 36 37 36 35 34 36 36 36
5 7 8 9 9 10 14 12 18 17 18 20 22 24 25 27 29 31 32 34 37 39 41 42 43 45 47 48 49 50 51 51 51 50 49 48 47 46 44 42 41 39 40 40 39 37 38 38 37
6 7 8 9 9 13 17 15 17 18 20 22 24 25 27 28 30 32 34 36 38 40 42 43 45 46 48 49 50 51 52 52 52 52 52 51 51 50 48 47 46 45 44 43 43 42 41 39 39
7 7 7 8 10 14 16 15 16 18 20 22 24 26 28 30 32 34 36 38 39 41 42 44 44 45 46 48 49 49 49 49 49 49 49 50 50 51 51 51 50 50 50 49 48 47 45 44 43
7 7 8 9 10 10 14 15 16 19 21 23 25 27 29 31 34 36 38 40 41 42 42 43 43 43 44 44 43 43 43 43 44 45 46 48 49 50 51 52 53 54 54 54 54 53 51 50 48
6 7 8 8 9 10 13 18 20 21 23 25 27 29 31 33 36 38 40 41 42 42 42 42 42 41 40 39 38 39 40 41 43 44 45 47 48 50 51 52 54 55 56 58 59 59 58 57 54
7 8 9 10 10 12 12 18 20 22 24 26 28 30 33 35 38 40 41 42 42 42 42 41 41 39 38 38 39 40 42 44 45 46 48 48 49 50 52 53 54 55 58 59 61 63 64 64 62
9 10 11 12 13 14 16 20 20 23 25 27 30 33 35 37 40 42 42 42 42 42 42 41 40 39 40 40 42 43 45 47 48 49 49 50 51 52 53 53 55 56 57 59 62 65 67 68 68
Wind_Direction
319 321 324 326 342 346 334 329 326 332 331 322 312 299 287 279 275 274 276 277 280 287 291 292 298 303 302 300 299 299 299 300 299 296 294 293 293 297 303 309 322 340 2 18 23 22 25 29 27
300 293 291 295 309 322 305 309 310 315 323 317 312 306 296 290 288 282 283 280 279 287 294 298 306 312 311 305 300 297 296 296 295 291 289 287 287 289 293 295 297 301 308 320 337 348 350 354 360
293 286 281 282 283 277 283 292 299 303 309 310 305 302 302 300 292 287 287 285 284 288 293 298 310 315 314 308 301 296 294 293 291 289 288 288 287 287 289 290 289 289 288 290 294 300 306 310 317
288 287 284 280 278 274 277 281 289 295 299 300 302 298 296 300 298 294 292 289 289 289 292 299 310 313 311 305 299 296 295 294 293 291 290 290 289 288 288 287 284 282 281 280 281 283 284 284 286
285 283 283 283 277 277 278 280 284 288 293 294 296 294 291 292 291 290 293 291 291 291 295 302 307 307 304 301 299 299 299 297 296 295 294 293 292 290 289 286 282 278 276 274 274 275 275 273 273
278 280 275 270 273 277 279 283 284 284 286 289 292 291 288 287 284 282 284 286 288 291 297 299 299 299 297 296 297 300 301 300 299 297 295 294 293 292 290 287 284 280 276 273 271 270 269 267 266
274 273 269 267 270 274 279 283 284 284 283 284 287 286 284 283 280 278 280 282 284 286 290 292 290 290 291 292 294 296 298 297 297 297 295 294 293 291 289 286 283 280 277 274 271 269 267 265 263
271 270 267 264 265 269 276 279 280 279 280 280 279 279 278 279 277 277 279 280 281 283 284 284 286 287 287 288 290 291 293 293 293 293 293 293 291 289 286 284 282 280 277 274 271 269 267 265 263
270 268 265 261 261 264 270 271 274 276 276 276 277 274 272 272 275 274 275 277 280 283 284 285 287 288 289 289 288 288 289 289 288 288 288 288 287 285 283 281 280 277 276 274 272 269 266 265 264
272 269 265 264 263 260 263 266 269 273 274 275 276 278 277 276 278 277 275 277 281 284 286 287 289 290 290 289 288 288 289 288 287 286 285 284 283 281 280 278 276 275 273 272 272 269 267 266 265
273 269 267 264 261 258 258 262 266 267 270 273 275 279 280 280 281 280 279 279 283 287 288 287 289 290 290 289 290 290 288 287 287 286 283 282 280 278 276 275 273 272 271 269 269 268 267 265 264
271 268 265 262 261 259 257 260 263 264 266 270 273 277 279 280 281 281 282 284 284 287 286 287 288 289 289 289 289 290 289 286 286 286 285 282 278 276 273 272 270 269 268 267 266 266 265 264 263
269 267 265 264 263 263 262 261 261 262 266 269 271 273 274 277 278 280 282 285 285 285 285 285 286 287 288 290 290 288 289 290 288 286 287 285 280 275 273 271 269 266 266 265 264 262 262 262 261
267 267 267 265 265 264 263 262 262 263 264 266 268 270 272 273 275 275 277 278 280 282 283 284 286 287 287 290 292 290 289 288 288 287 287 286 283 278 274 270 268 267 265 263 262 260 258 259 258
268 269 269 267 267 266 267 266 265 267 267 267 267 267 268 269 270 269 271 273 276 278 280 282 284 286 289 290 291 293 290 287 286 285 286 286 282 278 274 271 266 264 262 262 260 256 255 255 255
271 272 270 270 270 269 268 268 269 270 270 270 271 270 268 266 266 267 269 271 274 276 279 280 284 285 287 289 289 290 291 290 289 288 287 286 283 278 275 273 267 264 261 259 256 254 254 255 254
272 261 262 272 272 272 271 271 274 274 275 276 275 272 269 266 265 266 269 272 275 277 279 281 284 285 287 289 289 290 290 289 289 290 290 289 286 280 275 274 269 264 261 255 253 253 252 252 252
250 253 262 268 272 273 274 275 277 278 279 278 276 274 272 269 269 271 274 276 279 280 282 284 285 287 287 288 288 288 288 286 287 287 289 289 286 282 276 275 270 263 259 254 252 251 248 249 250
262 262 267 273 277 277 277 278 279 278 276 276 274 273 272 273 276 278 279 281 282 284 285 286 287 287 285 286 286 285 285 284 284 285 287 288 286 283 276 274 269 262 258 255 250 246 245 247 249
282 280 281 285 285 284 283 282 282 281 277 276 276 275 276 278 280 281 282 284 285 286 285 286 289 287 286 286 285 285 284 284 285 286 286 286 284 284 278 273 267 262 257 253 250 246 245 246 245
292 278 283 295 299 299 298 296 291 291 289 288 286 285 285 285 285 285 286 287 288 288 288 289 290 289 288 287 286 286 285 284 284 284 283 282 281 279 276 270 266 263 258 252 251 250 246 243 242
276 285 294 304 313 311 313 305 304 302 299 297 295 294 294 293 293 293 293 293 292 292 292 292 292 291 289 288 286 285 285 284 283 281 280 279 277 276 274 268 264 261 254 252 251 247 245 242 240
269 293 302 306 307 306 311 305 303 307 304 303 300 299 298 298 298 297 296 296 295 295 294 293 292 291 289 288 286 285 284 283 282 280 278 276 274 272 269 267 263 258 254 251 250 249 246 242 240
293 304 312 314 312 302 304 303 299 307 305 303 302 301 301 301 300 299 299 298 297 296 295 294 293 291 289 288 287 286 285 284 282 281 279 276 273 270 266 262 260 257 253 250 248 248 246 242 241
301 312 320 316 308 292 301 300 298 302 302 303 304 304 304 303 303 303 301 300 299 298 297 295 293 291 290 288 287 285 284 282 281 279 277 275 273 270 266 262 257 254 251 249 247 246 246 245 243
302 299 292 289 291 295 307 307 307 304 307 308 309 310 310 309 308 307 305 304 302 301 299 297 295 293 291 289 287 286 284 282 280 278 276 274 272 269 266 262 257 253 250 248 247 245 244 245 243
302 302 302 309 313 315 312 317 315 314 316 316 316 316 315 314 312 311 310 308 307 305 303 301 299 297 295 292 291 289 288 286 283 280 277 275 272 269 266 262 258 254 250 247 246 245 243 243 243
321 325 327 328 321 319 317 319 324 325 324 323 322 320 319 318 316 315 314 312 311 310 309 307 305 304 301 299 297 295 292 289 286 283 281 278 274 271 268 264 259 255 250 247 245 244 242 241 241
339 339 339 336 334 330 322 316 329 328 328 327 326 325 323 321 320 319 318 317 316 315 314 313 310 308 305 302 301 299 296 293 290 286 283 279 276 272 268 265 261 257 253 248 244 242 241 240 239
342 342 342 339 335 333 332 327 335 333 332 331 330 329 326 325 324 323 322 321 320 319 317 315 313 311 309 306 304 302 300 297 293 290 286 282 277 273 268 264 261 257 254 250 246 243 240 239 239
Height
5930 5930 5930 5931 5932 5932 5931 5930 5929 5929 5928 5927 5926 5926 5925 5925 5925 5927 5924 5922 5921 5921 5920 5920 5920 5920 5919 5919 5918 5918 5918 5917 5916 5915 5914 5913 5912 5911 5911 5910 5909 5909 5908 5907 5907 5906 5906 5905 5904
5930 5930 5931 5931 5931 5933 5931 5929 5929 5928 5927 5926 5925 5925 5924 5923 5923 5922 5921 5920 5920 5919 5919 5919 5919 5919 5918 5918 5918 5917 5916 5916 5915 5914 5913 5912 5911 5911 5910 5909 5908 5908 5907 5907 5906 5906 5905 5905 5904
5929 5929 5930 5931 5931 5931 5930 5929 5928 5927 5926 5925 5924 5923 5923 5922 5921 5921 5920 5919 5918 5918 5917 5917 5917 5917 5917 5917 5916 5916 5915 5914 5913 5912 5912 5911 5910 5909 5909 5908 5907 5907 5906 5906 5905 5905 5904 5904 5904
5928 5928 5929 5930 5929 5929 5928 5928 5927 5926 5925 5924 5923 5922 5921 5921 5920 5919 5918 5917 5916 5916 5915 5915 5915 5915 5915 5914 5914 5914 5913 5912 5911 5911 5910 5909 5909 5908 5907 5907 5906 5905 5905 5904 5904 5903 5903 5902 5902
5926 5927 5928 5928 5927 5926 5926 5926 5926 5925 5924 5923 5922 5921 5920 5919 5918 5917 5916 5915 5914 5914 5913 5913 5913 5913 5912 5912 5912 5911 5911 5910 5909 5909 5908 5907 5907 5906 5905 5905 5904 5903 5903 5902 5902 5901 5901 5901 5900
5924 5925 5926 5926 5925 5924 5923 5923 5924 5923 5923 5922 5921 5920 5918 5917 5916 5915 5914 5913 5912 5912 5911 5911 5911 5911 5911 5910 5910 5909 5908 5907 5907 5906 5905 5904 5904 5903 5903 5902 5901 5901 5900 5900 5899 5899 5898 5898 5898
5922 5922 5922 5922 5922 5921 5921 5921 5921 5921 5920 5920 5919 5918 5916 5915 5914 5913 5912 5911 5910 5910 5910 5909 5909 5908 5908 5907 5907 5906 5905 5904 5903 5902 5902 5901 5900 5900 5899 5898 5898 5897 5897 5896 5896 5896 5895 5895 5895
5917 5919 5918 5919 5918 5918 5918 5918 5918 5918 5918 5917 5917 5916 5914 5913 5912 5911 5910 5909 5909 5908 5908 5907 5906 5906 5905 5904 5903 5902 5901 5900 5899 5898 5897 5897 5896 5895 5894 5894 5893 5892 5892 5892 5892 5892 5891 5891 5891
5913 5915 5915 5914 5914 5914 5914 5914 5914 5915 5915 5914 5914 5913 5912 5911 5910 5909 5908 5907 5907 5906 5905 5904 5904 5903 5902 5901 5899 5898 5897 5895 5894 5893 5892 5891 5890 5889 5889 5888 5887 5887 5886 5886 5886 5887 5886 5886 5886
5909 5910 5910 5909 5910 5910 5909 5910 5910 5911 5911 5911 5911 5910 5910 5909 5908 5907 5906 5905 5904 5904 5903 5902 5901 5900 5898 5897 5895 5893 5892 5890 5888 5887 5886 5885 5884 5883 5882 5882 5881 5880 5880 5880 5880 5880 5880 5880 5881
5905 5905 5905 5904 5903 5904 5905 5905 5906 5907 5907 5907 5907 5907 5907 5906 5906 5904 5903 5902 5901 5900 5899 5898 5897 5895 5894 5892 5890 5888 5887 5885 5883 5881 5879 5877 5876 5875 5874 5874 5873 5873 5872 5872 5873 5873 5874 5874 5874
5900 5900 5899 5898 5898 5899 5900 5901 5901 5902 5903 5903 5903 5903 5903 5903 5902 5901 5900 5899 5898 5896 5895 5894 5892 5890 5888 5887 5885 5883 5880 5878 5876 5874 5872 5870 5868 5867 5865 5865 5865 5864 5865 5865 5865 5866 5867 5867 5868
5894 5894 5894 5894 5894 5894 5895 5896 5896 5897 5897 5898 5898 5898 5898 5898 5897 5896 5895 5894 5893 5892 5890 5888 5886 5885 5882 5880 5878 5876 5874 5871 5868 5866 5864 5861 5859 5858 5856 5856 5856 5856 5856 5857 5857 5858 5859 5860 5861
5888 5888 5889 5889 5889 5890 5890 5891 5891 5891 5892 5893 5893 5893 5892 5892 5891 5891 5890 5889 5888 5886 5884 5882 5880 5878 5876 5874 5871 5868 5866 5864 5861 5859 5856 5853 5850 5849 5848 5847 5847 5847 5847 5847 5848 5849 5850 5852 5854
5883 5884 5884 5884 5884 5885 5886 5885 5885 5886 5886 5886 5887 5887 5886 5886 5885 5885 5884 5883 5882 5880 5878 5876 5874 5872 5869 5866 5864 5861 5858 5855 5853 5850 5847 5844 5841 5840 5838 5837 5837 5837 5837 5837 5839 5841 5842 5844 5846
5880 5881 5881 5879 5880 5880 5883 5881 5880 5880 5880 5880 5880 5880 5880 5880 5879 5878 5878 5877 5876 5874 5872 5869 5867 5864 5861 5858 5855 5852 5850 5847 5844 5842 5839 5836 5833 5830 5829 5828 5827 5827 5827 5828 5830 5832 5834 5836 5838
5877 5879 5878 5876 5876 5876 5877 5876 5875 5875 5875 5874 5874 5874 5874 5873 5873 5872 5872 5871 5869 5867 5865 5862 5859 5856 5853 5850 5846 5844 5841 5839 5836 5834 5831 5828 5825 5822 5820 5819 5817 5817 5818 5819 5821 5824 5826 5829 5831
5876 5876 5875 5874 5872 5872 5872 5871 5871 5870 5870 5869 5869 5869 5868 5868 5867 5866 5865 5864 5861 5859 5856 5853 5850 5847 5844 5840 5838 5835 5832 5830 5828 5825 5822 5819 5816 5813 5811 5810 5809 5809 5809 5810 5813 5815 5818 5821 5823
5871 5872 5872 5871 5870 5869 5868 5867 5866 5866 5865 5864 5864 5864 5863 5862 5861 5860 5858 5856 5853 5850 5847 5844 5840 5837 5833 5831 5828 5825 5823 5821 5818 5816 5813 5810 5808 5805 5802 5801 5801 5801 5801 5802 5804 5807 5810 5813 5816
5869 5870 5870 5868 5867 5866 5865 5863 5862 5861 5860 5860 5859 5858 5858 5856 5855 5853 5850 5848 5844 5841 5837 5834 5830 5826 5823 5820 5817 5815 5812 5810 5808 5806 5804 5801 5799 5796 5794 5793 5793 5793 5794 5795 5796 5798 5801 5804 5807
5868 5868 5867 5866 5864 5862 5861 5860 5858 5857 5856 5855 5854 5853 5851 5849 5847 5845 5842 5839 5835 5831 5828 5824 5821 5817 5814 5811 5808 5805 5802 5800 5798 5796 5794 5792 5790 5788 5787 5785 5785 5784 5785 5786 5788 5790 5793 5795 5799
5866 5865 5864 5863 5862 5861 5860 5860 5856 5854 5852 5851 5849 5847 5845 5843 5840 5837 5834 5830 5827 5823 5819 5815 5811 5808 5804 5801 5797 5794 5791 5788 5786 5784 5783 5781 5779 5778 5777 5776 5776 5776 5777 5778 5780 5781 5784 5787 5790
5864 5863 5862 5861 5860 5859 5858 5858 5854 5851 5849 5847 5845 5842 5840 5837 5834 5830 5827 5823 5819 5814 5810 5806 5802 5797 5793 5789 5785 5782 5779 5776 5773 5771 5770 5769 5768 5767 5767 5767 5767 5767 5768 5769 5771 5773 5775 5778 5781
5862 5861 5860 5859 5859 5858 5856 5855 5851 5848 5846 5843 5840 5837 5834 5831 5828 5824 5819 5815 5810 5805 5800 5796 5791 5787 5782 5777 5773 5769 5765 5762 5760 5757 5756 5755 5754 5754 5754 5755 5756 5756 5758 5759 5761 5763 5766 5769 5772
5861 5861 5861 5859 5858 5856 5853 5851 5849 5845 5842 5839 5835 5832 5829 5825 5821 5816 5812 5807 5802 5796 5791 5786 5781 5776 5770 5765 5760 5756 5752 5749 5746 5744 5741 5740 5739 5739 5740 5741 5742 5744 5746 5748 5750 5753 5756 5758 5762
5859 5859 5860 5859 5858 5855 5849 5847 5845 5841 5837 5834 5831 5827 5823 5818 5814 5809 5803 5798 5792 5787 5781 5775 5770 5764 5759 5753 5748 5743 5739 5735 5732 5730 5727 5725 5724 5724 5724 5725 5727 5729 5732 5734 5737 5740 5744 5747 5751
5858 5856 5855 5854 5853 5851 5848 5844 5841 5837 5833 5830 5825 5821 5817 5811 5806 5800 5794 5788 5782 5776 5770 5764 5758 5752 5746 5740 5735 5730 5726 5722 5718 5715 5713 5711 5709 5708 5707 5708 5710 5712 5715 5719 5722 5726 5730 5734 5738
5856 5854 5853 5852 5850 5848 5846 5841 5837 5832 5829 5824 5820 5815 5810 5804 5798 5792 5785 5778 5771 5765 5758 5751 5745 5739 5733 5727 5723 5718 5713 5709 5705 5702 5699 5696 5694 5692 5691 5691 5692 5694 5697 5701 5705 5709 5714 5719 5724
5854 5852 5850 5848 5846 5845 5843 5841 5834 5829 5824 5819 5814 5809 5803 5797 5790 5783 5776 5768 5761 5754 5746 5739 5733 5727 5721 5716 5711 5706 5701 5696 5691 5687 5683 5680 5677 5675 5673 5673 5674 5675 5678 5682 5686 5691 5697 5702 5707
5852 5850 5848 5846 5843 5840 5838 5837 5829 5824 5819 5814 5809 5803 5796 5789 5782 5774 5766 5758 5751 5743 5736 5728 5722 5716 5710 5704 5699 5693 5687 5681 5675 5670 5666 5662 5659 5656 5654 5654 5654 5656 5658 5662 5667 5672 5678 5683 5690